Starlink 34750

operational
NORAD ID: 65061 Int'l Des: 2025-165 Owner: SPXS Country: US Constellation: starlink
LEOCIRCULARRETROGRADESSO

About Starlink 34750

Description loading...

Live Position

Loading 3D Globe...

Upcoming Passes

Altitude History

Altitude vs Time

uPlot chart will show altitude changes over time

Two-Line Element Set

1 65061U 25165F 26061.16918766 .00005133 00000-0 35967-3 0 9991
2 65061 97.6032 139.8894 0001044 91.3406 268.7940 15.05656332 33661
Epoch: Mar 2, 2026 • Age: 29 hours

Current Status

Altitude 555.5 km
Velocity 7.58 km/s
Sub-Earth Point -13.67°S, 85.44°E
Launch Date Jul 31, 2025
Age 0.5 years
Type internet

Technical Details

Classification Payload
Mass 575.00 kg
Dry Mass 530.00 kg
Total Mass 575.00 kg
Length 0.30 m
Diameter 4.10 m
Span 29.00 m
Shape Box + pan
Manufacturer SPXS
Bus Type Starlink V2MO
Phase Status In Orbit
Owner/State SPXS/US

Large Constellations

Loading constellations...